| time (UTC) | temp F | wind direction | speed MPH | gust MPH | rain 1hr in | rain 24hr in | rain mn in | humidity % | barometer mb |
| 20260507161051 | 59 | 118 | 0.0 | 0.0 | 0.00 | 0.00 | 0.00 | 56 | 1021.4 |
| 20260507160551 | 59 | 118 | 0.0 | 1.0 | 0.00 | 0.00 | 0.00 | 54 | 1021.5 |
| 20260507160054 | 59 | 118 | 0.0 | 1.0 | 0.00 | 0.00 | 0.00 | 54 | 1021.5 |
| 20260507155550 | 58 | 118 | 0.0 | 1.0 | 0.00 | 0.00 | 0.00 | 55 | 1021.6 |
| 20260507155050 | 59 | 119 | 0.0 | 0.0 | 0.00 | 0.00 | 0.00 | 55 | 1021.6 |
| 20260507154553 | 58 | 119 | 0.0 | 1.0 | 0.00 | 0.00 | 0.00 | 56 | 1021.6 |
| 20260507154048 | 58 | 119 | 0.0 | 1.0 | 0.00 | 0.00 | 0.00 | 55 | 1021.7 |
| 20260507153549 | 58 | 119 | 0.0 | 3.0 | 0.00 | 0.00 | 0.00 | 55 | 1021.7 |
| 20260507153049 | 57 | 124 | 1.0 | 3.0 | 0.00 | 0.00 | 0.00 | 55 | 1021.7 |
| 20260507152548 | 57 | 124 | 0.0 | 4.0 | 0.00 | 0.00 | 0.00 | 55 | 1021.8 |
| 20260507152048 | 56 | 123 | 1.0 | 6.0 | 0.00 | 0.00 | 0.00 | 56 | 1021.9 |
| 20260507151547 | 56 | 294 | 2.0 | 7.0 | 0.00 | 0.00 | 0.00 | 56 | 1021.9 |
| 20260507151045 | 56 | 247 | 2.0 | 7.0 | 0.00 | 0.00 | 0.00 | 56 | 1022.0 |
| 20260507150543 | 56 | 270 | 2.0 | 5.0 | 0.00 | 0.00 | 0.00 | 57 | 1022.1 |
| 20260507150043 | 55 | 283 | 1.0 | 6.0 | 0.00 | 0.00 | 0.00 | 57 | 1022.1 |
| 20260507145540 | 55 | 259 | 2.0 | 5.0 | 0.00 | 0.00 | 0.00 | 57 | 1022.1 |
| 20260507145038 | 55 | 263 | 2.0 | 9.0 | 0.00 | 0.00 | 0.00 | 59 | 1022.2 |
| 20260507144538 | 54 | 269 | 2.0 | 9.0 | 0.00 | 0.00 | 0.00 | 58 | 1022.3 |
| 20260507144039 | 54 | 269 | 1.0 | 7.0 | 0.00 | 0.00 | 0.00 | 58 | 1022.4 |
| 20260507143539 | 54 | 266 | 2.0 | 7.0 | 0.00 | 0.00 | 0.00 | 59 | 1022.4 |
| 20260507143038 | 54 | 304 | 2.0 | 8.0 | 0.00 | 0.00 | 0.00 | 59 | 1022.5 |
| 20260507142538 | 54 | 304 | 3.0 | 8.0 | 0.00 | 0.00 | 0.00 | 60 | 1022.4 |
| 20260507142136 | 54 | 304 | 0.0 | 8.0 | 0.00 | 0.00 | 0.00 | 60 | 1022.4 |
| 20260507141539 | 53 | 304 | 0.0 | 10.0 | 0.00 | 0.00 | 0.00 | 60 | 1022.5 |
| 20260507141036 | 53 | 296 | 2.0 | 9.0 | 0.00 | 0.00 | 0.00 | 61 | 1022.4 |
| 20260507140535 | 53 | 288 | 1.0 | 7.0 | 0.00 | 0.00 | 0.00 | 61 | 1022.4 |
| 20260507140036 | 53 | 287 | 1.0 | 7.0 | 0.00 | 0.00 | 0.00 | 61 | 1022.4 |
| 20260507135535 | 53 | 284 | 0.0 | 11.0 | 0.00 | 0.00 | 0.00 | 61 | 1022.4 |
| 20260507135035 | 53 | 284 | 3.0 | 11.0 | 0.00 | 0.00 | 0.00 | 62 | 1022.4 |
| 20260507134537 | 52 | 308 | 0.0 | 11.0 | 0.00 | 0.00 | 0.00 | 62 | 1022.4 |
| 20260507134035 | 52 | 308 | 2.0 | 11.0 | 0.00 | 0.00 | 0.00 | 62 | 1022.4 |
| 20260507133534 | 52 | 308 | 2.0 | 9.0 | 0.00 | 0.00 | 0.00 | 62 | 1022.4 |
| 20260507133043 | 52 | 307 | 1.0 | 9.0 | 0.00 | 0.00 | 0.00 | 62 | 1022.3 |
| 20260507132536 | 52 | 309 | 3.0 | 11.0 | 0.00 | 0.00 | 0.00 | 63 | 1022.3 |
| 20260507132033 | 51 | 305 | 0.0 | 11.0 | 0.00 | 0.00 | 0.00 | 62 | 1022.3 |
| 20260507131542 | 51 | 309 | 1.0 | 11.0 | 0.00 | 0.00 | 0.00 | 62 | 1022.2 |
| 20260507131035 | 51 | 305 | 2.0 | 14.0 | 0.00 | 0.00 | 0.00 | 62 | 1022.2 |
| 20260507130532 | 51 | 307 | 2.0 | 14.0 | 0.00 | 0.00 | 0.00 | 62 | 1022.2 |
| 20260507130038 | 51 | 306 | 2.0 | 13.0 | 0.00 | 0.00 | 0.00 | 63 | 1022.1 |
| 20260507125531 | 51 | 306 | 2.0 | 13.0 | 0.00 | 0.00 | 0.00 | 63 | 1022.0 |
| 20260507125030 | 51 | 305 | 3.0 | 9.0 | 0.00 | 0.00 | 0.00 | 63 | 1022.0 |
| 20260507124533 | 51 | 306 | 2.0 | 10.0 | 0.00 | 0.00 | 0.00 | 63 | 1021.9 |
| 20260507124030 | 51 | 307 | 3.0 | 10.0 | 0.00 | 0.00 | 0.00 | 63 | 1021.8 |
| 20260507123531 | 51 | 304 | 3.0 | 11.0 | 0.00 | 0.00 | 0.00 | 63 | 1021.8 |
| 20260507123031 | 51 | 306 | 2.0 | 12.0 | 0.00 | 0.00 | 0.00 | 63 | 1021.8 |
| 20260507122529 | 51 | 306 | 2.0 | 12.0 | 0.00 | 0.00 | 0.00 | 63 | 1021.8 |
| 20260507122030 | 51 | 323 | 1.0 | 9.0 | 0.00 | 0.00 | 0.00 | 63 | 1021.7 |
| 20260507121528 | 51 | 292 | 0.0 | 13.0 | 0.00 | 0.00 | 0.00 | 63 | 1021.7 |
| 20260507121028 | 51 | 309 | 4.0 | 13.0 | 0.00 | 0.00 | 0.00 | 63 | 1021.7 |
| 20260507120526 | 51 | 309 | 2.0 | 13.0 | 0.00 | 0.00 | 0.00 | 63 | 1021.6 |
| 20260507120028 | 51 | 311 | 5.0 | 13.0 | 0.00 | 0.00 | 0.00 | 63 | 1021.7 |
| 20260507115526 | 51 | 311 | 1.0 | 8.0 | 0.00 | 0.00 | 0.00 | 63 | 1021.6 |
| 20260507115025 | 51 | 312 | 1.0 | 13.0 | 0.00 | 0.00 | 0.00 | 63 | 1021.6 |
| 20260507114641 | 51 | 314 | 4.0 | 13.0 | 0.00 | 0.00 | 0.00 | 63 | 1021.5 |
| 20260507114024 | 51 | 304 | 3.0 | 11.0 | 0.00 | 0.00 | 0.00 | 63 | 1021.5 |
| 20260507113525 | 51 | 304 | 4.0 | 13.0 | 0.00 | 0.00 | 0.00 | 63 | 1021.5 |
| 20260507113023 | 51 | 313 | 7.0 | 13.0 | 0.00 | 0.00 | 0.00 | 63 | 1021.5 |
| 20260507112527 | 51 | 307 | 4.0 | 14.0 | 0.00 | 0.00 | 0.00 | 63 | 1021.5 |
| 20260507112022 | 51 | 303 | 4.0 | 14.0 | 0.00 | 0.00 | 0.00 | 63 | 1021.5 |
| 20260507111524 | 51 | 304 | 5.0 | 14.0 | 0.00 | 0.00 | 0.00 | 63 | 1021.3 |
| 20260507111020 | 51 | 306 | 6.0 | 14.0 | 0.00 | 0.00 | 0.00 | 63 | 1021.3 |
| 20260507110520 | 51 | 306 | 5.0 | 13.0 | 0.00 | 0.00 | 0.00 | 64 | 1021.3 |
| 20260507110020 | 51 | 307 | 5.0 | 13.0 | 0.00 | 0.00 | 0.00 | 63 | 1021.3 |
| 20260507105519 | 51 | 308 | 5.0 | 13.0 | 0.00 | 0.00 | 0.00 | 64 | 1021.2 |
| 20260507105020 | 51 | 308 | 6.0 | 13.0 | 0.00 | 0.00 | 0.00 | 64 | 1021.3 |
| 20260507104517 | 51 | 312 | 3.0 | 11.0 | 0.00 | 0.00 | 0.00 | 64 | 1021.2 |
| 20260507104016 | 51 | 307 | 3.0 | 11.0 | 0.00 | 0.00 | 0.00 | 64 | 1021.1 |
| 20260507103515 | 51 | 307 | 2.0 | 14.0 | 0.00 | 0.00 | 0.00 | 63 | 1021.1 |
| 20260507103016 | 51 | 299 | 6.0 | 14.0 | 0.00 | 0.00 | 0.00 | 63 | 1021.0 |
| 20260507102513 | 51 | 311 | 5.0 | 13.0 | 0.00 | 0.00 | 0.00 | 63 | 1020.9 |
| 20260507102013 | 51 | 306 | 1.0 | 12.0 | 0.00 | 0.00 | 0.00 | 63 | 1020.9 |
| 20260507101515 | 51 | 312 | 3.0 | 12.0 | 0.00 | 0.00 | 0.00 | 63 | 1020.8 |
| 20260507101013 | 52 | 306 | 1.0 | 14.0 | 0.00 | 0.00 | 0.00 | 62 | 1020.8 |
| 20260507100509 | 52 | 317 | 4.0 | 14.0 | 0.00 | 0.00 | 0.00 | 62 | 1020.7 |
| 20260507100009 | 52 | 314 | 2.0 | 15.0 | 0.00 | 0.00 | 0.00 | 62 | 1020.7 |
| 20260507095508 | 52 | 329 | 5.0 | 15.0 | 0.00 | 0.00 | 0.00 | 62 | 1020.6 |
| 20260507095008 | 52 | 304 | 5.0 | 14.0 | 0.00 | 0.00 | 0.00 | 62 | 1020.5 |
| 20260507094507 | 52 | 307 | 4.0 | 12.0 | 0.00 | 0.00 | 0.00 | 62 | 1020.4 |
| 20260507094005 | 52 | 317 | 3.0 | 12.0 | 0.00 | 0.00 | 0.00 | 61 | 1020.3 |
| 20260507093506 | 52 | 311 | 5.0 | 12.0 | 0.00 | 0.00 | 0.00 | 61 | 1020.3 |
| 20260507093004 | 52 | 323 | 0.0 | 13.0 | 0.00 | 0.00 | 0.00 | 61 | 1020.2 |
| 20260507092504 | 53 | 313 | 6.0 | 21.0 | 0.00 | 0.00 | 0.00 | 60 | 1020.0 |
| 20260507092003 | 53 | 300 | 10.0 | 21.0 | 0.00 | 0.00 | 0.00 | 60 | 1019.9 |
| 20260507091503 | 53 | 303 | 5.0 | 14.0 | 0.00 | 0.00 | 0.00 | 59 | 1019.8 |
| 20260507091002 | 53 | 302 | 5.0 | 15.0 | 0.00 | 0.00 | 0.00 | 59 | 1019.9 |
| 20260507090502 | 53 | 324 | 8.0 | 17.0 | 0.00 | 0.00 | 0.00 | 59 | 1019.7 |
| 20260507090000 | 53 | 307 | 8.0 | 17.0 | 0.00 | 0.00 | 0.00 | 59 | 1019.8 |
| 20260507085700 | 53 | 286 | 7.0 | 15.0 | 0.00 | 0.00 | 0.00 | 59 | 1019.8 |
| 20260507085103 | 53 | 303 | 7.0 | 17.0 | 0.00 | 0.00 | 0.00 | 58 | 1019.6 |
| 20260507084602 | 53 | 287 | 8.0 | 17.0 | 0.00 | 0.00 | 0.00 | 58 | 1019.6 |
| 20260507084101 | 53 | 316 | 7.0 | 16.0 | 0.00 | 0.00 | 0.00 | 58 | 1019.5 |
| 20260507083557 | 53 | 282 | 7.0 | 16.0 | 0.00 | 0.00 | 0.00 | 58 | 1019.4 |
| 20260507083057 | 53 | 294 | 7.0 | 17.0 | 0.00 | 0.00 | 0.00 | 58 | 1019.5 |
| 20260507082555 | 53 | 317 | 7.0 | 16.0 | 0.00 | 0.00 | 0.00 | 58 | 1019.5 |
| 20260507082055 | 53 | 306 | 8.0 | 14.0 | 0.00 | 0.00 | 0.00 | 58 | 1019.7 |
| 20260507081555 | 53 | 309 | 4.0 | 13.0 | 0.00 | 0.00 | 0.00 | 58 | 1019.8 |
| 20260507081055 | 53 | 298 | 5.0 | 14.0 | 0.00 | 0.00 | 0.00 | 58 | 1019.5 |
| 20260507080556 | 53 | 310 | 6.0 | 19.0 | 0.00 | 0.00 | 0.00 | 57 | 1019.7 |
| 20260507080114 | 54 | 267 | 9.0 | 19.0 | 0.00 | 0.00 | 0.00 | 57 | 1019.9 |
| 20260507075552 | 54 | 293 | 6.0 | 15.0 | 0.00 | 0.00 | 0.00 | 57 | 1019.7 |
| 20260507075051 | 54 | 295 | 8.0 | 18.0 | 0.00 | 0.00 | 0.00 | 57 | 1019.6 |
| 20260507074551 | 54 | 296 | 7.0 | 18.0 | 0.00 | 0.00 | 0.00 | 57 | 1019.7 |
| 20260507074050 | 54 | 317 | 5.0 | 15.0 | 0.00 | 0.00 | 0.00 | 57 | 1019.8 |
| 20260507073549 | 54 | 306 | 7.0 | 13.0 | 0.00 | 0.00 | 0.00 | 57 | 1019.8 |
| 20260507073052 | 54 | 315 | 6.0 | 14.0 | 0.00 | 0.00 | 0.00 | 57 | 1020.0 |
| 20260507072550 | 54 | 302 | 4.0 | 15.0 | 0.00 | 0.00 | 0.00 | 57 | 1020.1 |
| 20260507072046 | 54 | 300 | 3.0 | 15.0 | 0.00 | 0.00 | 0.00 | 58 | 1019.9 |
| 20260507071546 | 54 | 311 | 4.0 | 14.0 | 0.00 | 0.00 | 0.00 | 58 | 1019.7 |
| 20260507071045 | 54 | 307 | 6.0 | 17.0 | 0.00 | 0.00 | 0.00 | 58 | 1019.4 |
| 20260507070543 | 54 | 306 | 8.0 | 17.0 | 0.00 | 0.00 | 0.00 | 57 | 1019.2 |
| 20260507070043 | 54 | 302 | 4.0 | 17.0 | 0.00 | 0.00 | 0.00 | 57 | 1019.1 |
| 20260507065544 | 54 | 291 | 6.0 | 16.0 | 0.00 | 0.00 | 0.00 | 56 | 1019.0 |
| 20260507065040 | 55 | 309 | 8.0 | 21.0 | 0.00 | 0.00 | 0.00 | 56 | 1018.9 |
| 20260507064540 | 55 | 304 | 9.0 | 21.0 | 0.00 | 0.00 | 0.00 | 55 | 1018.7 |
| 20260507064039 | 56 | 302 | 7.0 | 19.0 | 0.00 | 0.00 | 0.00 | 55 | 1018.7 |
| 20260507063538 | 56 | 305 | 10.0 | 19.0 | 0.00 | 0.00 | 0.00 | 55 | 1018.6 |
| 20260507063036 | 56 | 309 | 8.0 | 16.0 | 0.00 | 0.00 | 0.00 | 54 | 1018.3 |
| 20260507062535 | 57 | 306 | 5.0 | 19.0 | 0.00 | 0.00 | 0.00 | 54 | 1018.2 |
| 20260507062034 | 57 | 304 | 7.0 | 17.0 | 0.00 | 0.00 | 0.00 | 53 | 1018.2 |
| 20260507061533 | 57 | 292 | 6.0 | 18.0 | 0.00 | 0.00 | 0.00 | 53 | 1018.1 |
| 20260507061031 | 58 | 313 | 4.0 | 18.0 | 0.00 | 0.00 | 0.00 | 52 | 1017.9 |
| 20260507060529 | 58 | 298 | 6.0 | 17.0 | 0.00 | 0.00 | 0.00 | 51 | 1018.0 |
| 20260507060129 | 58 | 340 | 3.0 | 16.0 | 0.00 | 0.00 | 0.00 | 51 | 1018.1 |
| 20260507055527 | 59 | 310 | 5.0 | 16.0 | 0.00 | 0.00 | 0.00 | 50 | 1017.8 |
| 20260507055029 | 60 | 315 | 2.0 | 20.0 | 0.00 | 0.00 | 0.00 | 49 | 1017.6 |
| 20260507054534 | 60 | 304 | 8.0 | 20.0 | 0.00 | 0.00 | 0.00 | 47 | 1017.6 |
| 20260507054025 | 61 | 313 | 6.0 | 18.0 | 0.00 | 0.00 | 0.00 | 45 | 1017.5 |
| 20260507053524 | 62 | 303 | 7.0 | 18.0 | 0.00 | 0.00 | 0.00 | 43 | 1017.4 |
| 20260507053023 | 64 | 321 | 6.0 | 24.0 | 0.00 | 0.00 | 0.00 | 39 | 1017.2 |
| 20260507052522 | 66 | 318 | 9.0 | 24.0 | 0.00 | 0.00 | 0.00 | 32 | 1017.1 |
| 20260507052021 | 67 | 315 | 8.0 | 22.0 | 0.00 | 0.00 | 0.00 | 22 | 1016.9 |
| 20260507051520 | 67 | 225 | 1.0 | 5.0 | 0.00 | 0.00 | 0.00 | 23 | 1015.8 |
| 20260507051019 | 68 | 244 | 0.0 | 5.0 | 0.00 | 0.00 | 0.00 | 22 | 1015.7 |
| 20260507050518 | 68 | 244 | 0.0 | 8.0 | 0.00 | 0.00 | 0.00 | 22 | 1015.8 |
| 20260507050024 | 68 | 244 | 4.0 | 8.0 | 0.00 | 0.00 | 0.00 | 21 | 1015.7 |
| 20260507045518 | 68 | 240 | 2.0 | 8.0 | 0.00 | 0.00 | 0.00 | 21 | 1015.7 |
| 20260507045019 | 68 | 250 | 0.0 | 7.0 | 0.00 | 0.00 | 0.00 | 22 | 1015.7 |
| 20260507044521 | 68 | 252 | 1.0 | 7.0 | 0.00 | 0.00 | 0.00 | 22 | 1015.6 |
| 20260507044018 | 69 | 250 | 1.0 | 8.0 | 0.00 | 0.00 | 0.00 | 22 | 1015.6 |
| 20260507043518 | 69 | 250 | 0.0 | 8.0 | 0.00 | 0.00 | 0.00 | 21 | 1015.5 |
| 20260507043022 | 69 | 229 | 2.0 | 7.0 | 0.00 | 0.00 | 0.00 | 22 | 1015.5 |
| 20260507042518 | 69 | 248 | 0.0 | 7.0 | 0.00 | 0.00 | 0.00 | 21 | 1015.4 |
| 20260507042017 | 70 | 248 | 2.0 | 7.0 | 0.00 | 0.00 | 0.00 | 21 | 1015.3 |
| 20260507041518 | 70 | 248 | 0.0 | 7.0 | 0.00 | 0.00 | 0.00 | 21 | 1015.2 |
| 20260507041018 | 70 | 248 | 1.0 | 7.0 | 0.00 | 0.00 | 0.00 | 21 | 1015.2 |
| 20260507040517 | 70 | 232 | 2.0 | 8.0 | 0.00 | 0.00 | 0.00 | 21 | 1015.2 |
| 20260507040016 | 70 | 244 | 1.0 | 8.0 | 0.00 | 0.00 | 0.00 | 21 | 1015.3 |
| 20260507035516 | 70 | 242 | 0.0 | 7.0 | 0.00 | 0.00 | 0.00 | 21 | 1015.2 |
| 20260507035016 | 70 | 247 | 1.0 | 9.0 | 0.00 | 0.00 | 0.00 | 20 | 1015.1 |
| 20260507034516 | 70 | 229 | 2.0 | 9.0 | 0.00 | 0.00 | 0.00 | 20 | 1015.2 |
| 20260507034017 | 70 | 244 | 0.0 | 8.0 | 0.00 | 0.00 | 0.00 | 21 | 1015.0 |
| 20260507033516 | 71 | 244 | 0.0 | 8.0 | 0.00 | 0.00 | 0.00 | 21 | 1014.9 |
| 20260507033015 | 71 | 244 | 1.0 | 7.0 | 0.00 | 0.00 | 0.00 | 21 | 1014.9 |
| 20260507032516 | 72 | 224 | 2.0 | 7.0 | 0.00 | 0.00 | 0.00 | 20 | 1014.8 |
| 20260507032014 | 73 | 238 | 0.0 | 11.0 | 0.00 | 0.00 | 0.00 | 18 | 1014.7 |
| 20260507031515 | 73 | 236 | 4.0 | 14.0 | 0.00 | 0.00 | 0.00 | 18 | 1014.7 |
| 20260507031014 | 73 | 235 | 2.0 | 14.0 | 0.00 | 0.00 | 0.00 | 18 | 1014.7 |
| 20260507030514 | 73 | 219 | 2.0 | 10.0 | 0.00 | 0.00 | 0.00 | 18 | 1014.6 |
| 20260507030013 | 73 | 246 | 4.0 | 11.0 | 0.00 | 0.00 | 0.00 | 18 | 1014.6 |
| 20260507025513 | 73 | 243 | 3.0 | 11.0 | 0.00 | 0.00 | 0.00 | 18 | 1014.6 |
| 20260507025013 | 73 | 246 | 2.0 | 6.0 | 0.00 | 0.00 | 0.00 | 18 | 1014.5 |
| 20260507024514 | 73 | 222 | 2.0 | 9.0 | 0.00 | 0.00 | 0.00 | 18 | 1014.4 |
| 20260507024017 | 73 | 236 | 1.0 | 9.0 | 0.00 | 0.00 | 0.00 | 18 | 1014.3 |
| 20260507023513 | 73 | 232 | 2.0 | 11.0 | 0.00 | 0.00 | 0.00 | 18 | 1014.3 |
| 20260507023012 | 74 | 224 | 2.0 | 12.0 | 0.00 | 0.00 | 0.00 | 18 | 1014.2 |
| 20260507022513 | 74 | 243 | 4.0 | 12.0 | 0.00 | 0.00 | 0.00 | 18 | 1014.1 |
| 20260507022014 | 74 | 244 | 0.0 | 9.0 | 0.00 | 0.00 | 0.00 | 18 | 1014.1 |
| 20260507021511 | 74 | 246 | 2.0 | 7.0 | 0.00 | 0.00 | 0.00 | 17 | 1014.0 |
| 20260507021011 | 74 | 232 | 2.0 | 7.0 | 0.00 | 0.00 | 0.00 | 18 | 1014.0 |
| 20260507020512 | 75 | 248 | 0.0 | 5.0 | 0.00 | 0.00 | 0.00 | 17 | 1014.0 |
| 20260507020010 | 75 | 248 | 1.0 | 7.0 | 0.00 | 0.00 | 0.00 | 17 | 1013.9 |
| 20260507015510 | 75 | 223 | 3.0 | 8.0 | 0.00 | 0.00 | 0.00 | 16 | 1013.9 |
| 20260507015010 | 76 | 236 | 0.0 | 7.0 | 0.00 | 0.00 | 0.00 | 16 | 1013.8 |
| 20260507014510 | 76 | 235 | 2.0 | 10.0 | 0.00 | 0.00 | 0.00 | 16 | 1013.8 |
| 20260507014012 | 76 | 233 | 3.0 | 12.0 | 0.00 | 0.00 | 0.00 | 16 | 1013.7 |
| 20260507013509 | 76 | 242 | 3.0 | 10.0 | 0.00 | 0.00 | 0.00 | 15 | 1013.7 |
| 20260507013018 | 77 | 253 | 2.0 | 9.0 | 0.00 | 0.00 | 0.00 | 15 | 1013.6 |
| 20260507012509 | 77 | 241 | 3.0 | 15.0 | 0.00 | 0.00 | 0.00 | 15 | 1013.6 |
| 20260507012010 | 77 | 219 | 5.0 | 15.0 | 0.00 | 0.00 | 0.00 | 15 | 1013.5 |
| 20260507011512 | 77 | 246 | 2.0 | 11.0 | 0.00 | 0.00 | 0.00 | 15 | 1013.5 |
| 20260507011008 | 78 | 240 | 5.0 | 12.0 | 0.00 | 0.00 | 0.00 | 15 | 1013.4 |
| 20260507010508 | 78 | 238 | 3.0 | 9.0 | 0.00 | 0.00 | 0.00 | 14 | 1013.4 |
| 20260507010010 | 78 | 244 | 3.0 | 15.0 | 0.00 | 0.00 | 0.00 | 14 | 1013.4 |
| 20260507005508 | 78 | 244 | 6.0 | 15.0 | 0.00 | 0.00 | 0.00 | 13 | 1013.2 |
| 20260507005007 | 79 | 234 | 4.0 | 11.0 | 0.00 | 0.00 | 0.00 | 14 | 1013.2 |
| 20260507004508 | 79 | 237 | 0.0 | 9.0 | 0.00 | 0.00 | 0.00 | 14 | 1013.1 |
| 20260507004008 | 79 | 242 | 1.0 | 10.0 | 0.00 | 0.00 | 0.00 | 14 | 1013.0 |
| 20260507003508 | 79 | 253 | 3.0 | 11.0 | 0.00 | 0.00 | 0.00 | 15 | 1013.0 |
| 20260507003007 | 79 | 251 | 0.0 | 14.0 | 0.00 | 0.00 | 0.00 | 14 | 1012.9 |
| 20260507002510 | 80 | 259 | 5.0 | 14.0 | 0.00 | 0.00 | 0.00 | 14 | 1012.8 |
| 20260507002007 | 80 | 225 | 3.0 | 11.0 | 0.00 | 0.00 | 0.00 | 14 | 1012.8 |
| 20260507001509 | 80 | 236 | 5.0 | 11.0 | 0.00 | 0.00 | 0.00 | 13 | 1012.8 |
| 20260507001006 | 80 | 259 | 3.0 | 10.0 | 0.00 | 0.00 | 0.00 | 14 | 1012.8 |
| 20260507000506 | 80 | 229 | 3.0 | 14.0 | 0.00 | 0.00 | 0.00 | 14 | 1012.8 |
| 20260507000006 | 81 | 242 | 6.0 | 16.0 | 0.00 | 0.00 | 0.00 | 13 | 1012.7 |
| 20260506235505 | 81 | 227 | 3.0 | 12.0 | 0.00 | 0.00 | 0.00 | 13 | 1012.7 |
| 20260506235005 | 81 | 284 | 3.0 | 22.0 | 0.00 | 0.00 | 0.00 | 13 | 1012.6 |
| 20260506234505 | 81 | 254 | 7.0 | 22.0 | 0.00 | 0.00 | 0.00 | 12 | 1012.6 |
| 20260506234009 | 81 | 240 | 6.0 | 15.0 | 0.00 | 0.00 | 0.00 | 13 | 1012.5 |
| 20260506233505 | 81 | 258 | 3.0 | 15.0 | 0.00 | 0.00 | 0.00 | 13 | 1012.6 |
| 20260506233007 | 82 | 233 | 5.0 | 15.0 | 0.00 | 0.00 | 0.00 | 13 | 1012.5 |
| 20260506232504 | 82 | 239 | 3.0 | 15.0 | 0.00 | 0.00 | 0.00 | 13 | 1012.4 |
| 20260506232004 | 82 | 233 | 7.0 | 14.0 | 0.00 | 0.00 | 0.00 | 14 | 1012.3 |
| 20260506231505 | 82 | 223 | 6.0 | 14.0 | 0.00 | 0.00 | 0.00 | 13 | 1012.4 |
| 20260506231004 | 82 | 236 | 5.0 | 17.0 | 0.00 | 0.00 | 0.00 | 13 | 1012.4 |
| 20260506230507 | 83 | 247 | 7.0 | 17.0 | 0.00 | 0.00 | 0.00 | 14 | 1012.5 |
| 20260506230003 | 83 | 230 | 6.0 | 15.0 | 0.00 | 0.00 | 0.00 | 13 | 1012.4 |
| 20260506225503 | 82 | 242 | 5.0 | 12.0 | 0.00 | 0.00 | 0.00 | 14 | 1012.4 |
| 20260506225004 | 83 | 257 | 4.0 | 13.0 | 0.00 | 0.00 | 0.00 | 13 | 1012.3 |
| 20260506224503 | 82 | 260 | 7.0 | 15.0 | 0.00 | 0.00 | 0.00 | 13 | 1012.4 |
| 20260506224003 | 82 | 244 | 5.0 | 15.0 | 0.00 | 0.00 | 0.00 | 14 | 1012.3 |
| 20260506223502 | 82 | 236 | 3.0 | 17.0 | 0.00 | 0.00 | 0.00 | 14 | 1012.3 |
| 20260506223003 | 83 | 290 | 7.0 | 19.0 | 0.00 | 0.00 | 0.00 | 13 | 1012.3 |
| 20260506222502 | 83 | 306 | 5.0 | 16.0 | 0.00 | 0.00 | 0.00 | 14 | 1012.2 |
| 20260506222001 | 83 | 242 | 5.0 | 16.0 | 0.00 | 0.00 | 0.00 | 13 | 1012.3 |
| 20260506221502 | 83 | 211 | 4.0 | 14.0 | 0.00 | 0.00 | 0.00 | 14 | 1012.3 |
| 20260506221002 | 83 | 228 | 6.0 | 14.0 | 0.00 | 0.00 | 0.00 | 13 | 1012.4 |
| 20260506220502 | 83 | 250 | 3.0 | 15.0 | 0.00 | 0.00 | 0.00 | 13 | 1012.3 |
| 20260506220000 | 83 | 238 | 7.0 | 25.0 | 0.00 | 0.00 | 0.00 | 13 | 1012.3 |
| 20260506215501 | 83 | 205 | 11.0 | 25.0 | 0.00 | 0.00 | 0.00 | 12 | 1012.4 |
| 20260506215002 | 83 | 252 | 3.0 | 15.0 | 0.00 | 0.00 | 0.00 | 13 | 1012.4 |
| 20260506214503 | 83 | 227 | 4.0 | 17.0 | 0.00 | 0.00 | 0.00 | 13 | 1012.4 |
| 20260506214002 | 83 | 224 | 7.0 | 15.0 | 0.00 | 0.00 | 0.00 | 13 | 1012.5 |
| 20260506213501 | 83 | 228 | 4.0 | 20.0 | 0.00 | 0.00 | 0.00 | 12 | 1012.4 |
| 20260506213127 | 83 | 206 | 5.0 | 20.0 | 0.00 | 0.00 | 0.00 | 13 | 1012.6 |
| 20260506212602 | 83 | 233 | 10.0 | 19.0 | 0.00 | 0.00 | 0.00 | 13 | 1012.6 |
| 20260506212100 | 83 | 238 | 8.0 | 16.0 | 0.00 | 0.00 | 0.00 | 12 | 1012.6 |
| 20260506211600 | 83 | 275 | 8.0 | 17.0 | 0.00 | 0.00 | 0.00 | 12 | 1012.5 |
| 20260506211059 | 83 | 284 | 5.0 | 15.0 | 0.00 | 0.00 | 0.00 | 13 | 1012.7 |
| 20260506210600 | 83 | 229 | 8.0 | 16.0 | 0.00 | 0.00 | 0.00 | 13 | 1012.7 |
| 20260506210058 | 83 | 229 | 6.0 | 25.0 | 0.00 | 0.00 | 0.00 | 12 | 1012.7 |
| 20260506205557 | 83 | 220 | 4.0 | 16.0 | 0.00 | 0.00 | 0.00 | 12 | 1012.8 |
| 20260506205057 | 83 | 259 | 5.0 | 16.0 | 0.00 | 0.00 | 0.00 | 12 | 1012.8 |
| 20260506204557 | 83 | 204 | 6.0 | 20.0 | 0.00 | 0.00 | 0.00 | 13 | 1012.9 |
| 20260506204056 | 83 | 246 | 6.0 | 20.0 | 0.00 | 0.00 | 0.00 | 13 | 1012.9 |
| 20260506203556 | 83 | 265 | 5.0 | 19.0 | 0.00 | 0.00 | 0.00 | 13 | 1012.9 |
| 20260506203058 | 83 | 261 | 8.0 | 19.0 | 0.00 | 0.00 | 0.00 | 12 | 1012.9 |
| 20260506202556 | 83 | 245 | 7.0 | 23.0 | 0.00 | 0.00 | 0.00 | 12 | 1013.0 |
| 20260506202056 | 83 | 232 | 9.0 | 26.0 | 0.00 | 0.00 | 0.00 | 12 | 1013.0 |
| 20260506201556 | 83 | 227 | 11.0 | 26.0 | 0.00 | 0.00 | 0.00 | 12 | 1013.0 |
| 20260506201055 | 82 | 232 | 5.0 | 17.0 | 0.00 | 0.00 | 0.00 | 11 | 1013.0 |
| 20260506200555 | 83 | 192 | 5.0 | 18.0 | 0.00 | 0.00 | 0.00 | 11 | 1013.2 |
| 20260506200055 | 83 | 234 | 6.0 | 20.0 | 0.00 | 0.00 | 0.00 | 12 | 1013.2 |
| 20260506195554 | 83 | 202 | 7.0 | 20.0 | 0.00 | 0.00 | 0.00 | 11 | 1013.2 |
| 20260506195058 | 82 | 257 | 5.0 | 17.0 | 0.00 | 0.00 | 0.00 | 12 | 1013.3 |
| 20260506194557 | 82 | 221 | 5.0 | 17.0 | 0.00 | 0.00 | 0.00 | 14 | 1013.3 |
| 20260506194055 | 82 | 226 | 5.0 | 12.0 | 0.00 | 0.00 | 0.00 | 13 | 1013.4 |
| 20260506193554 | 83 | 265 | 3.0 | 17.0 | 0.00 | 0.00 | 0.00 | 15 | 1013.4 |
| 20260506193053 | 82 | 241 | 3.0 | 17.0 | 0.00 | 0.00 | 0.00 | 14 | 1013.4 |
| 20260506192552 | 81 | 218 | 6.0 | 12.0 | 0.00 | 0.00 | 0.00 | 14 | 1013.4 |
| 20260506192054 | 82 | 255 | 5.0 | 16.0 | 0.00 | 0.00 | 0.00 | 15 | 1013.6 |
| 20260506191553 | 82 | 206 | 4.0 | 16.0 | 0.00 | 0.00 | 0.00 | 15 | 1013.5 |
| 20260506191052 | 81 | 192 | 3.0 | 15.0 | 0.00 | 0.00 | 0.00 | 16 | 1013.5 |
| 20260506190552 | 81 | 188 | 6.0 | 22.0 | 0.00 | 0.00 | 0.00 | 15 | 1013.6 |
| 20260506190052 | 81 | 167 | 8.0 | 22.0 | 0.00 | 0.00 | 0.00 | 15 | 1013.7 |
| 20260506185550 | 82 | 277 | 4.0 | 12.0 | 0.00 | 0.00 | 0.00 | 16 | 1013.8 |
| 20260506185052 | 81 | 272 | 4.0 | 13.0 | 0.00 | 0.00 | 0.00 | 17 | 1013.9 |
| 20260506184553 | 81 | 217 | 3.0 | 13.0 | 0.00 | 0.00 | 0.00 | 17 | 1013.8 |
| 20260506184049 | 81 | 254 | 5.0 | 20.0 | 0.00 | 0.00 | 0.00 | 19 | 1013.9 |
| 20260506183549 | 80 | 281 | 5.0 | 20.0 | 0.00 | 0.00 | 0.00 | 19 | 1014.0 |
| 20260506183056 | 80 | 289 | 7.0 | 20.0 | 0.00 | 0.00 | 0.00 | 18 | 1014.0 |
| 20260506182548 | 80 | 321 | 8.0 | 20.0 | 0.00 | 0.00 | 0.00 | 16 | 1014.1 |
| 20260506182048 | 80 | 202 | 6.0 | 19.0 | 0.00 | 0.00 | 0.00 | 17 | 1014.2 |
| 20260506181612 | 81 | 250 | 6.0 | 17.0 | 0.00 | 0.00 | 0.00 | 19 | 1014.2 |
| 20260506181046 | 80 | 238 | 5.0 | 16.0 | 0.00 | 0.00 | 0.00 | 18 | 1014.3 |
| 20260506180545 | 79 | 225 | 1.0 | 16.0 | 0.00 | 0.00 | 0.00 | 19 | 1014.4 |
| 20260506180045 | 79 | 250 | 4.0 | 16.0 | 0.00 | 0.00 | 0.00 | 21 | 1014.6 |
| 20260506175544 | 79 | 236 | 3.0 | 12.0 | 0.00 | 0.00 | 0.00 | 21 | 1014.6 |
| 20260506175046 | 78 | 234 | 5.0 | 12.0 | 0.00 | 0.00 | 0.00 | 25 | 1014.6 |
| 20260506174542 | 77 | 217 | 0.0 | 5.0 | 0.00 | 0.00 | 0.00 | 29 | 1014.7 |
| 20260506174040 | 75 | 225 | 0.0 | 6.0 | 0.00 | 0.00 | 0.00 | 32 | 1014.9 |
| 20260506173641 | 76 | 223 | 0.0 | 6.0 | 0.00 | 0.00 | 0.00 | 32 | 1015.0 |
| 20260506173054 | 76 | 243 | 0.0 | 6.0 | 0.00 | 0.00 | 0.00 | 32 | 1015.0 |
| 20260506172538 | 75 | 244 | 1.0 | 6.0 | 0.00 | 0.00 | 0.00 | 34 | 1014.9 |
| 20260506172038 | 76 | 219 | 0.0 | 5.0 | 0.00 | 0.00 | 0.00 | 33 | 1015.0 |
| 20260506171538 | 75 | 53 | 0.0 | 5.0 | 0.00 | 0.00 | 0.00 | 35 | 1015.0 |
| 20260506171037 | 75 | 53 | 0.0 | 5.0 | 0.00 | 0.00 | 0.00 | 37 | 1015.0 |
| 20260506170535 | 74 | 53 | 0.0 | 4.0 | 0.00 | 0.00 | 0.00 | 35 | 1015.2 |
| 20260506170039 | 74 | 53 | 1.0 | 7.0 | 0.00 | 0.00 | 0.00 | 35 | 1015.1 |
| 20260506165535 | 73 | 54 | 0.0 | 7.0 | 0.00 | 0.00 | 0.00 | 38 | 1015.1 |
| 20260506165035 | 73 | 288 | 1.0 | 3.0 | 0.00 | 0.00 | 0.00 | 36 | 1015.0 |
| 20260506164537 | 73 | 360 | 0.0 | 1.0 | 0.00 | 0.00 | 0.00 | 36 | 1015.0 |
| 20260506164032 | 73 | 360 | 0.0 | 0.0 | 0.00 | 0.00 | 0.00 | 35 | 1015.1 |
| 20260506163531 | 72 | 355 | 0.0 | 2.0 | 0.00 | 0.00 | 0.00 | 36 | 1015.1 |
| 20260506163032 | 72 | 360 | 0.0 | 3.0 | 0.00 | 0.00 | 0.00 | 37 | 1015.2 |
| 20260506162530 | 72 | 360 | 0.0 | 5.0 | 0.00 | 0.00 | 0.00 | 37 | 1015.2 |
| 20260506162029 | 71 | 290 | 1.0 | 5.0 | 0.00 | 0.00 | 0.00 | 38 | 1015.2 |